Flag for U.S.A. Weather past 2 weeks in Chico, California, U.S.A.

Now
68 °F

Clear.


Feels Like: 68 °F
Forecast: 58 / 85 °F
Wind: 9 mph from Southeast

Location: Oroville Municipal Airport

Current Time: Aug 30, 2015 at 3:34:57 AM

Latest Report: Aug 30, 2015 at 2:53 AM


Visibility: 10 mi

Pressure: 29.95 "Hg

Humidity: 51%

Dew point: 49 °F

Location of ChicoLocation

Historic Weather in Chico — Graph

°F

Chico temperature yesterday

Maximum temperature yesterday: 88 °F (at 3:53 PM)
Minimum temperature yesterday: 69 °F (at 6:53 AM)
Average temperature yesterday: 78 °F

Past Weeks' High & Low Weather Summary

 TemperatureHumidityPressure
High102 °F (Aug 17, 4:53 PM)84% (Aug 29, 6:53 AM)30.04 "Hg (Aug 29, 6:53 AM)
Low61 °F (Aug 15, 5:53 AM)8% (Aug 16, 3:53 PM)29.74 "Hg (Aug 17, 6:53 PM)
Average80 °F40%29.89 "Hg
* Reported Aug 15 1:53 AM — Aug 30 1:53 AM, Chico, Weather by CustomWeather, © 2015

Note: Actual official high and low records may vary slightly from our data, if they occured in-between our weather recording intervals... More about our weather records

Advertising

Chico weather history for previous 24 hours

 ConditionsComfort  
Time TempWeatherWind HumidityBarometerVisibility
1:53 AM
Sun, Aug 30
70 °FClear.10 mph47%29.94 "Hg10 mi
12:53 AM71 °FClear.9 mph44%29.94 "Hg10 mi
11:53 PM
Sat, Aug 29
72 °FClear.8 mph43%29.94 "Hg10 mi
10:53 PM72 °FClear.8 mph44%29.94 "Hg10 mi
9:53 PM75 °FClear.12 mph43%29.94 "Hg10 mi
8:53 PM77 °FClear.10 mph48%29.92 "Hg10 mi
7:53 PM80 °FSunny.8 mph45%29.90 "Hg10 mi
6:53 PM83 °FSunny.12 mph37%29.90 "Hg10 mi
5:53 PM85 °FSunny.16 mph36%29.90 "Hg10 mi
4:53 PM87 °FSunny.13 mph30%29.90 "Hg10 mi
3:53 PM88 °FSunny.16 mph33%29.92 "Hg10 mi
2:53 PM86 °FScattered clouds.15 mph42%29.93 "Hg10 mi
1:53 PM87 °FSunny.17 mph42%29.95 "Hg10 mi
12:53 PM85 °FPassing clouds.14 mph48%29.95 "Hg10 mi
11:53 AM82 °FSunny.18 mph53%29.96 "Hg10 mi
10:53 AM79 °FScattered clouds.16 mph58%29.96 "Hg10 mi
9:53 AM75 °FOvercast.18 mph62%29.96 "Hg10 mi
8:53 AM72 °FScattered clouds.14 mph71%29.95 "Hg10 mi
7:53 AM69 °FLight rain. Mostly cloudy.13 mph81%29.94 "Hg10 mi
6:53 AM69 °FClear.14 mph84%29.92 "Hg10 mi
5:53 AM70 °FLight rain. Overcast.9 mph79%29.91 "Hg10 mi
4:53 AM73 °FOvercast.10 mph62%29.89 "Hg10 mi
3:53 AM73 °FPassing clouds.15 mph62%29.88 "Hg10 mi
Weather by CustomWeather, © 2015

See weather overviewHow to use our weather pages